Regional Weather Roundup
Issued by NWS Albany, NY

Home | Current Version | Previous Version | Text Only | Print | Product List | Glossary On
Versions: 1 2 3 4 5 6 7 8 9 10 11 12 13 14 15 16 17 18 19 20 21 22 23 24 25 26 27 28 29 30 31 32 33 34 35 36 37 38 39 40 41 42 43 44 45 46 47 48 49 50
000
ASUS41 KALY 100910
RWRALY

NEW YORK STATE HOURLY WEATHER ROUNDUP
NATIONAL WEATHER SERVICE ALBANY NY
400 AM EST WED FEB 10 2016

NOTE: "FAIR" INDICATES FEW OR NO CLOUDS BELOW 12,000 FEET WITH NO
SIGNIFICANT WEATHER AND/OR NO OBSTRUCTIONS TO VISIBILITY.

NYZ032-033-038>043-046>054-057>066-NYZ062>081-101000-
EAST


CITY           SKY/WX    TMP DP  RH WIND       PRES   REMARKS
ALBANY         LGT SNOW  28  24  85 S5        29.54F FOG     WCI  23
GLENS FALLS    CLOUDY    24  21  88 CALM      29.53F FOG
POUGHKEEPSIE   CLOUDY    31  27  85 CALM      29.56S
NEWBURGH       CLOUDY    30  28  93 CALM      29.56
MONTGOMERY     CLOUDY    30  28  92 CALM      29.54S FOG
WHITE PLAINS   LGT SNOW  29  26  89 CALM      29.56S FOG
ISLIP          LGT SNOW  28  25  88 CALM      29.58S FOG
NEW YORK CITY  LGT RAIN  33  30  88 VRB3      29.58S FOG
CENTRAL PARK   CLOUDY    33  28  81 CALM      29.60S HAZE
$$

NYZ005>009-017-018-044>046-055-056-101000-
CENTRAL


CITY           SKY/WX    TMP DP  RH WIND       PRES   REMARKS
FULTON         CLOUDY    32  26  78 S5        29.50F WCI  27
SYRACUSE       FLURRIES  28  28 100 W5        29.51S WCI  23
ROME           CLOUDY    26  24  92 SE3       29.53S
ELMIRA         CLOUDY    29  23  78 SW7       29.52S WCI  22
BINGHAMTON     MOCLDY    26  22  84 W10       29.48S WCI  16
MONTICELLO     CLOUDY    27  27 100 CALM      29.50F
$$

NYZ026>034-041>043-101000-
NORTH


CITY           SKY/WX    TMP DP  RH WIND       PRES   REMARKS
WATERTOWN      CLOUDY    25  23  92 NE3       29.48F FOG
FORT DRUM      NOT AVBL
MASSENA        LGT SNOW  20  15  81 NE3       29.54S
SARANAC LAKE   CLOUDY    24  22  91 CALM      29.40F
PLATTSBURGH    CLOUDY    23  19  85 CALM      29.51S
$$

NYZ001>004-010>016-019>021-101000-
WEST


CITY           SKY/WX    TMP DP  RH WIND       PRES   REMARKS
NIAGARA FALLS  LGT SNOW  29  24  82 W17       29.52R WCI  17
BUFFALO        LGT SNOW  28  25  88 W15       29.52R BLWGSNOWWCI  16
DUNKIRK        LGT SNOW  28  24  85 W16G24    29.58S FOG     WCI  16
JAMESTOWN      CLOUDY    25  18  74 W17       29.53S WCI  11
WELLSVILLE     CLOUDY    25  16  68 W16G30    29.49S WCI  12
ROCHESTER      FLURRIES  32  24  72 W14G25    29.49S WCI  22
PENN YAN       CLOUDY    31  20  63 SW13G23   29.49F WCI  21
$$

             KEY
       WCI = WIND CHILL INDEX
       VSB = VISIBILITY
       HX  = HEAT INDEX
$$



USA.gov is the U.S. government's official web portal to all federal, state and local government web resources and services.